This demonstration page uses our WeatherBlox Daily Observations layout. Learn more.

Hourly Observations for March 18, 2016

Temp ( °F °C ) Dew Point ( °F °C ) Humidity (%) Winds ( mph kmh ) Pressure ( in mb ) Visibility ( mi km ) Precip ( " mm )
12:15 am 00:15 Partly Cloudy 40 4.5 18 -7.6 41 41 NNE 18 30 30.15 1021 10 16.0934 0 0
12:35 am 00:35 Clear 39 4 17 -8.1 41 41 NNE 20 31 30.15 1021 10 16.0934 0 0
12:55 am 00:55 Mostly Cloudy 38 3.3 17 -8.3 43 43 NNE 16 26 30.18 1022 10 16.0934 0 0
1:15 am 01:15 Mostly Cloudy 37 3 17 -8.5 43 43 NNE 15 24 30.18 1022 10 16.0934 0 0
1:35 am 01:35 Cloudy 37 2.5 17 -8.5 44 44 NNE 15 24 30.21 1023 10 16.0934 0 0
1:55 am 01:55 Cloudy 36 2.2 17 -8.5 45 45 NNE 15 24 30.21 1023 10 16.0934 0 0
2:15 am 02:15 Partly Cloudy 35 1.9 17 -8.2 48 48 NNE 15 24 30.21 1023 10 16.0934 0 0
2:35 am 02:35 Mostly Cloudy 35 1.5 18 -8 50 50 NNE 15 24 30.21 1023 10 16.0934 0 0
2:55 am 02:55 Cloudy 34 1.1 17 -8.5 49 49 NNE 14 22 30.21 1023 10 16.0934 0 0
3:15 am 03:15 Cloudy 33 0.8 16 -8.7 49 49 NNE 14 22 30.21 1023 10 16.0934 0 0
3:35 am 03:35 Cloudy 33 0.7 17 -8.5 51 51 NNE 15 24 30.24 1024 10 16.0934 0 0
3:55 am 03:55 Cloudy 33 0.5 17 -8.6 51 51 NNE 15 24 30.24 1024 10 16.0934 0 0
4:15 am 04:15 Cloudy 32 0.1 16 -9 51 51 N 15 24 30.24 1024 10 16.0934 0 0
4:35 am 04:35 Cloudy 32 0 16 -9 51 51 N 13 20 30.24 1024 10 16.0934 0 0
4:55 am 04:55 Cloudy 32 0 16 -8.9 52 52 N 12 19 30.24 1024 10 16.0934 0 0
5:15 am 05:15 Cloudy 31 -0.3 16 -8.9 53 53 N 13 20 30.24 1024 10 16.0934 0 0
5:35 am 05:35 Cloudy 31 -0.6 16 -9 53 53 N 10 17 30.24 1024 10 16.0934 0 0
5:55 am 05:55 Mostly Cloudy 31 -0.8 16 -9 54 54 N 9 15 30.27 1025 10 16.0934 0 0
6:15 am 06:15 Cloudy 30 -1 16 -8.9 55 55 NNE 8 13 30.27 1025 10 16.0934 0 0
6:35 am 06:35 Cloudy 30 -1.1 16 -8.8 56 56 N 8 13 30.27 1025 10 16.0934 0 0
6:55 am 06:55 Cloudy 30 -1.2 17 -8.6 58 58 NNE 7 11 30.27 1025 10 16.0934 0 0
7:15 am 07:15 Cloudy 30 -1.3 16 -8.7 58 58 N 6 9 30.3 1026 10 16.0934 0 0
7:35 am 07:35 Cloudy 29 -1.6 16 -9 57 57 N 7 11 30.3 1026 10 16.0934 0 0
7:55 am 07:55 Cloudy 29 -1.7 15 -9.2 57 57 N 8 13 30.3 1026 10 16.0934 0 0
8:15 am 08:15 Cloudy 28 -2 15 -9.3 58 58 N 7 11 30.36 1028 10 16.0934 0 0
8:35 am 08:35 Cloudy 29 -1.9 15 -9.6 56 56 N 7 11 30.36 1028 10 16.0934 0 0
8:55 am 08:55 Cloudy 28 -2 15 -9.5 57 57 N 8 13 30.36 1028 10 16.0934 0 0
9:15 am 09:15 Cloudy 28 -2 15 -9.5 57 57 NNW 8 13 30.36 1028 10 16.0934 0 0
9:35 am 09:35 Mostly Cloudy 29 -1.5 15 -9.3 56 56 N 8 13 30.36 1028 10 16.0934 0 0
9:55 am 09:55 Partly Cloudy 30 -1 16 -9.1 55 55 NNW 9 15 30.33 1027 10 16.0934 0 0
10:35 am 10:35 Partly Cloudy 31 -0.5 16 -9 53 53 NNW 3 6 30.36 1028 10 16.0934 0 0
10:55 am 10:55 Sunny 33 0.6 15 -9.3 48 48 NNW 8 13 30.33 1027 10 16.0934 0 0
11:15 am 11:15 Sunny 34 1.1 15 -9.7 45 45 NNW 6 9 30.33 1027 10 16.0934 0 0
11:35 am 11:35 Sunny 36 2.2 14 -9.8 41 41 N 10 17 30.3 1026 10 16.0934 0 0
11:55 am 11:55 Partly Cloudy 38 3.1 15 -9.7 39 39 NNW 10 17 30.3 1026 10 16.0934 0 0
12:15 pm 12:15 Partly Cloudy 38 3.4 12 -11 34 34 N 15 24 30.3 1026 10 16.0934 0 0
12:35 pm 12:35 Sunny 40 4.2 13 -10.6 33 33 N 16 26 30.3 1026 10 16.0934 0 0
12:55 pm 12:55 Sunny 40 4.5 12 -11.2 31 31 NNE 16 26 30.3 1026 10 16.0934 0 0
1:35 pm 13:35 Partly Cloudy 41 4.9 13 -10.8 31 31 NW 13 20 30.24 1024 10 16.0934 0 0
1:55 pm 13:55 Partly Cloudy 41 5.2 12 -11.2 30 30 N 13 20 30.24 1024 10 16.0934 0 0
2:15 pm 14:15 Sunny 42 5.8 12 -10.9 29 29 NNW 13 20 30.24 1024 10 16.0934 0 0
2:35 pm 14:35 Partly Cloudy 43 6.1 13 -10.7 29 29 N 14 22 30.21 1023 10 16.0934 0 0
2:55 pm 14:55 Partly Cloudy 44 6.5 13 -10.5 29 29 NW 12 19 30.21 1023 10 16.0934 0 0
3:15 pm 15:15 Mostly Cloudy 45 7 13 -10.4 28 28 NW 15 24 30.21 1023 10 16.0934 0 0
3:35 pm 15:35 Partly Cloudy 44 6.9 13 -10.4 28 28 NW 16 26 30.21 1023 10 16.0934 0 0
3:55 pm 15:55 Partly Cloudy 45 7.1 13 -10.5 28 28 NW 14 22 30.21 1023 10 16.0934 0 0
4:15 pm 16:15 Mostly Cloudy 44 6.8 12 -11.1 27 27 NW 18 30 30.21 1023 10 16.0934 0 0
4:35 pm 16:35 Partly Cloudy 44 6.8 12 -11.1 27 27 WNW 20 31 30.18 1022 10 16.0934 0 0
4:55 pm 16:55 Partly Cloudy 44 6.7 11 -11.5 26 26 NW 10 17 30.18 1022 10 16.0934 0 0
5:15 pm 17:15 Mostly Cloudy 44 6.8 10 -12.1 25 25 NNW 20 31 30.18 1022 10 16.0934 0 0
5:35 pm 17:35 Partly Cloudy 42 5.6 10 -12.1 27 27 NNW 17 28 30.18 1022 10 16.0934 0 0
5:55 pm 17:55 Partly Cloudy 42 5.5 9 -12.6 26 26 NNW 12 19 30.18 1022 10 16.0934 0 0
6:15 pm 18:15 Partly Cloudy 42 5.4 8 -13.3 25 25 NW 14 22 30.21 1023 10 16.0934 0 0
6:35 pm 18:35 Partly Cloudy 41 5.2 8 -13.6 25 25 NNW 14 22 30.21 1023 10 16.0934 0 0
6:55 pm 18:55 Sunny 42 5.4 7 -13.7 24 24 NNW 18 30 30.21 1023 10 16.0934 0 0
7:15 pm 19:15 Sunny 40 4.7 8 -13.5 26 26 N 16 26 30.21 1023 10 16.0934 0 0
7:35 pm 19:35 Sunny 38 3.5 8 -13.1 29 29 N 10 17 30.27 1025 10 16.0934 0 0
7:55 pm 19:55 Clear 37 2.5 8 -13.5 30 30 N 8 13 30.27 1025 10 16.0934 0 0
8:15 pm 20:15 Clear 35 1.8 7 -13.7 31 31 N 8 13 30.27 1025 10 16.0934 0 0
8:35 pm 20:35 Clear 32 0 7 -14.1 34 34 N 7 11 30.3 1026 10 16.0934 0 0
8:55 pm 20:55 Clear 31 -0.5 6 -14.4 34 34 N 6 9 30.3 1026 10 16.0934 0 0
9:15 pm 21:15 Clear 27 -2.8 6 -14.4 41 41 N 5 7 30.33 1027 10 16.0934 0 0
9:35 pm 21:35 Clear 30 -1.2 8 -13.5 39 39 N 6 9 30.33 1027 10 16.0934 0 0
9:55 pm 21:55 Partly Cloudy 27 -2.7 7 -13.9 42 42 NNW 3 6 30.36 1028 10 16.0934 0 0
10:15 pm 22:15 Clear 28 -2.2 8 -13.2 43 43 NNW 5 7 30.36 1028 10 16.0934 0 0
10:35 pm 22:35 Clear 28 -2 8 -13.1 43 43 NNW 7 11 30.36 1028 10 16.0934 0 0
10:55 pm 22:55 Partly Cloudy 28 -2.2 9 -12.6 45 45 NW 6 9 30.36 1028 10 16.0934 0 0
11:15 pm 23:15 Mostly Cloudy 26 -3.6 9 -12.7 50 50 NW 6 9 30.36 1028 10 16.0934 0 0
11:35 pm 23:35 Mostly Cloudy 26 -3.6 10 -12.2 52 52 NW 5 7 30.36 1028 10 16.0934 0 0
11:55 pm 23:55 Clear 24 -4.3 10 -12.2 55 55 NW 6 9 30.36 1028 10 16.0934 0 0

Powered by AerisWeather